Flag for Poland Weather past 2 weeks in Zabrze, Poland

Now
61 °F

Passing clouds.


Feels Like: 61 °F
Forecast: 46 / 68 °F
Wind: 6 mph from Northeast

Location: Katowice Airport


UV Index: 3 (Moderate)

Visibility: N/A


Pressure: 29.77 "Hg

Humidity: 48%

Dew point: 41 °F

Location of ZabrzeLocation

Historic Weather in Zabrze

°F

Zabrze temperature yesterday

Maximum temperature yesterday: 54 °F (at 3:00 PM)
Minimum temperature yesterday: 30 °F (at 12:30 AM)
Average temperature yesterday: 42 °F

Past Weeks' High & Low Weather Summary

 TemperatureHumidityPressure
High70 °F (Apr 8, 1:30 PM)100% (Apr 10, 5:00 AM)30.33 "Hg (Apr 10, 5:00 AM)
Low28 °F (Apr 13, 5:30 AM)31% (Apr 18, 1:30 PM)29.68 "Hg (Apr 3, 6:00 PM)
Average46 °F74%29.98 "Hg
* Reported Apr 3 6:00 PM — Apr 18 6:00 PM, Zabrze, Weather by CustomWeather, © 2014

Note: Actual official high and low records may vary slightly from our data, if they occured in-between our weather recording intervals... More about our weather records

Advertising

Historic Weather Conditions — Data for Previous 24 hours

 ConditionsComfort  
Time TempWeatherWind HumidityBarometerVisibility
6:00 PM
Apr 18
61 °FPassing clouds.7 mph45%29.77 "HgN/A
5:30 PM63 °FPassing clouds.3 mph34%29.77 "HgN/A
5:00 PM63 °FPassing clouds.6 mph37%29.77 "HgN/A
4:30 PM63 °FPassing clouds.5 mph34%29.77 "HgN/A
4:00 PM63 °FPassing clouds.5 mph34%29.77 "HgN/A
3:30 PM63 °FSunny.3 mph32%29.77 "Hg10 mi
3:00 PM61 °FPassing clouds.8 mph34%29.77 "HgN/A
2:30 PM61 °FSunny.3 mph34%29.77 "Hg10 mi
2:00 PM59 °FSunny.6 mph34%29.77 "Hg10 mi
1:30 PM59 °FPassing clouds.7 mph31%29.77 "HgN/A
1:00 PM57 °FSunny.7 mph33%29.80 "Hg10 mi
12:30 PM55 °FPassing clouds.7 mph41%29.80 "HgN/A
12:00 PM55 °FPassing clouds.6 mph44%29.80 "HgN/A
11:30 AM54 °FPassing clouds.5 mph51%29.80 "HgN/A
11:00 AM54 °FPassing clouds.6 mph54%29.80 "HgN/A
10:30 AM52 °FSunny.7 mph54%29.83 "Hg10 mi
10:00 AM50 °FSunny.7 mph58%29.83 "Hg10 mi
9:30 AM48 °FPassing clouds.8 mph62%29.83 "HgN/A
9:00 AM46 °FClear.6 mph66%29.83 "Hg5 mi
8:30 AM43 °FClear.6 mph76%29.83 "Hg4 mi
8:00 AM41 °FClear.7 mph81%29.83 "Hg4 mi
7:30 AM39 °FClear.2 mph87%29.83 "Hg4 mi
7:00 AM34 °FClear.2 mph93%29.83 "Hg4 mi
6:30 AM32 °FIce fog.3 mph93%29.83 "Hg3 mi
6:00 AM36 °FFog.6 mph93%29.83 "Hg3 mi
5:30 AM30 °FClear.2 mph100%29.86 "Hg4 mi
5:00 AM30 °FIce fog.1 mph100%29.86 "Hg3 mi
4:30 AM32 °FClear.3 mph100%29.86 "Hg4 mi
4:00 AM32 °FClear.2 mph100%29.89 "Hg4 mi
3:30 AM32 °FClear.No wind93%29.89 "Hg4 mi
3:00 AM32 °FClear.2 mph100%29.89 "Hg10 mi
2:30 AM32 °FClear.1 mph93%29.92 "Hg10 mi
2:00 AM32 °FClear.1 mph93%29.92 "Hg10 mi
1:30 AM32 °FClear.No wind100%29.95 "Hg10 mi
1:00 AM32 °FClear.2 mph93%29.95 "Hg10 mi
12:30 AM34 °FClear.2 mph93%29.98 "Hg10 mi
12:00 AM34 °FClear.2 mph93%29.98 "Hg10 mi
11:30 PM
Apr 17
36 °FClear.1 mph93%30.01 "Hg10 mi
11:00 PM37 °FPassing clouds.1 mph87%30.01 "HgN/A
10:30 PM37 °FPassing clouds.1 mph87%30.01 "HgN/A
10:00 PM39 °FClear.No wind81%30.04 "Hg10 mi
9:30 PM41 °FClear.2 mph76%30.04 "Hg10 mi
9:00 PM43 °FClear.1 mph76%30.04 "Hg10 mi
8:30 PM45 °FSunny.3 mph76%30.07 "Hg10 mi
8:00 PM50 °FSunny.3 mph50%30.07 "Hg10 mi
7:00 PM52 °FSunny.6 mph44%30.07 "Hg10 mi
Weather by CustomWeather, © 2014

See weather overview